GLOBALSTAR M060 (26083 NORAD) Tracking and Keplerian Element Data

This shows tracking and keplerian element data for the satellite.

Feedback or suggestion? Click here.




ElementValue
Catalog26083
NameGLOBALSTAR M060
Epoch Orbit13607
Epoch Day34.43670744
Epoch Year2025
RAAN70.1855
Inclination52.0021
Eccentricity0.0003429
Argument of Perigee206.4916
Mean Anonmoly261.5511
Mean Motion12.17652137
Decay Rate-7.9E-07
L11 26083U 00008C 25034.43670744 -.00000079 00000+0 11905-3 0 9991
L22 26083 52.0021 70.1855 0003429 206.4916 261.5511 12.17652137136076



Live tracking and technical data element details for GLOBALSTAR M060 (NORAD 26083). GLOBALSTAR M060 can be tracked NOW for your location showing map with azimuth and elevation plus other details from your city location.







IsCatalogInMostPopularTable: catalog: 26083, numindb: 340
Update: records affected: 1



GetName: 26083 GLOBALSTAR M060

Hit Count: updated at: Thu, 15 May 2025 10:34:06 GMT